Stations météo

réclame
Mon MeteoGroup
Storlien-Visjovalen A, Suède (2207): Température de l'air & dewpoint: 22.05.2018 07:00:00 - 28.05.2018 07:00:00 (CEST)Storlien-Visjovalen A, Suède (2207): Vitesse du vent & gusts: 22.05.2018 07:00:00 - 28.05.2018 07:00:00 (CEST)Storlien-Visjovalen A, Suède (2207): Direction du vent: 22.05.2018 07:00:00 - 28.05.2018 07:00:00 (CEST)Storlien-Visjovalen A, Suède (2207): reduced air pressure: 22.05.2018 07:00:00 - 28.05.2018 07:00:00 (CEST)Storlien-Visjovalen A, Suède (2207): visibility: 22.05.2018 07:00:00 - 28.05.2018 07:00:00 (CEST)Storlien-Visjovalen A, Suède (2207): Quantités de précipitations: 22.05.2018 07:00:00 - 28.05.2018 07:00:00 (CEST)
Date & Time tt [°C] td [°C] ff [km/h] ff [knt] fx [km/h] fx [knt] dd ppp [hPa] vv [km] rr [mm]
28.05.2018 07:00:00 - - - - - - - - - -
28.05.2018 06:00:00 13,0 6,6 2 1 13 7 N 1028,2 50 0,0
28.05.2018 05:00:00 10,5 6,1 3 2 13 7 WNW 1029,2 50 0,0
28.05.2018 04:00:00 9,4 5,0 6 3 11 6 E 1029,4 50 0,0
28.05.2018 03:00:00 11,2 5,7 3 1 8 4 ENE 1029,0 50 0,0
28.05.2018 02:00:00 9,6 5,2 4 2 8 5 ESE 1029,6 50 0,0
28.05.2018 01:00:00 7,8 4,6 2 1 8 5 W 1030,2 50 0,0
28.05.2018 00:00:00 8,6 4,2 3 1 6 3 WNW 1029,9 50 0,0
27.05.2018 23:00:00 11,4 4,8 4 2 12 7 W 1029,0 50 0,0
27.05.2018 22:00:00 16,5 5,7 0 0 16 9 N 1027,5 50 0,0
27.05.2018 21:00:00 20,3 3,5 8 5 19 11 ESE 1026,2 47 0,0
27.05.2018 20:00:00 22,3 2,9 10 6 19 11 ESE 1025,8 50 0,0
27.05.2018 19:00:00 23,1 3,6 9 5 19 10 SE 1025,7 50 0,0
27.05.2018 18:00:00 23,4 2,8 9 5 22 12 SE 1026,0 45 0,0
27.05.2018 17:00:00 24,2 -0,2 5 3 22 12 SSW 1026,2 46 0,0
27.05.2018 16:00:00 23,6 -0,7 12 6 22 12 SE 1026,8 40 0,0
27.05.2018 15:00:00 23,0 0,1 5 3 18 10 E 1027,5 44 0,0
27.05.2018 14:00:00 21,8 -1,5 9 5 18 10 E 1028,3 50 0,0
27.05.2018 13:00:00 21,9 -0,2 5 3 16 9 ENE 1028,8 45 0,0
27.05.2018 12:00:00 20,2 -0,5 3 2 16 9 SSE 1029,7 48 0,0
27.05.2018 11:00:00 17,7 -0,6 5 3 12 6 NE 1030,5 43 0,0
27.05.2018 10:00:00 15,7 2,1 4 2 11 6 E 1031,3 50 0,0
27.05.2018 09:00:00 13,2 3,3 5 3 11 6 E 1032,2 50 0,0
27.05.2018 08:00:00 9,8 2,6 4 2 6 3 ESE 1033,5 50 0,0
27.05.2018 07:00:00 5,9 3,1 2 1 5 3 ENE 1034,6 49 0,0
27.05.2018 06:00:00 1,8 0,9 3 1 5 3 N 1035,9 41 0,0
27.05.2018 05:00:00 -0,5 -1,1 2 1 5 3 WNW 1036,3 33 0,0
27.05.2018 04:00:00 -0,7 -1,4 2 1 5 3 SE 1036,4 29 0,0
27.05.2018 03:00:00 -0,8 -1,6 0 0 5 3 N 1036,6 26 0,0
27.05.2018 02:00:00 0,1 -1,0 3 1 4 2 WNW 1036,5 28 0,0
27.05.2018 01:00:00 2,2 0,7 2 1 8 5 SSE 1036,2 35 0,0
27.05.2018 00:00:00 3,9 1,6 0 0 8 5 N 1035,5 43 0,0
26.05.2018 23:00:00 6,4 2,5 3 2 12 6 NNE 1034,7 45 0,0
26.05.2018 22:00:00 9,3 3,3 5 3 19 10 W 1033,8 49 0,0
26.05.2018 21:00:00 12,2 0,6 8 4 23 13 NW 1032,6 50 0,0
26.05.2018 20:00:00 13,5 0,2 10 5 24 13 NW 1032,1 50 0,0
26.05.2018 19:00:00 13,7 -1,9 14 7 24 13 NW 1031,7 50 0,0
26.05.2018 18:00:00 14,4 0,6 12 6 25 13 NNW 1031,3 50 0,0
26.05.2018 17:00:00 14,0 4,0 12 7 25 13 NNW 1031,7 50 0,0
26.05.2018 16:00:00 14,6 5,4 12 7 24 13 NW 1031,6 46 0,0
26.05.2018 15:00:00 14,4 6,0 11 6 19 10 NNW 1031,7 38 0,0
26.05.2018 14:00:00 13,0 5,9 11 6 21 11 NNW 1032,3 34 0,0
26.05.2018 13:00:00 11,6 5,7 12 6 21 11 NNW 1033,1 34 0,0
26.05.2018 12:00:00 9,6 5,2 7 4 13 7 N 1033,8 33 0,0
26.05.2018 11:00:00 8,4 5,5 5 3 17 9 NNW 1034,1 31 0,0
26.05.2018 10:00:00 7,7 5,3 9 5 23 12 NNW 1034,4 32 0,0
26.05.2018 09:00:00 7,3 5,4 10 5 23 12 N 1033,9 18 0,0
26.05.2018 08:00:00 6,8 4,9 5 3 16 9 N 1033,6 26 0,0
26.05.2018 07:00:00 5,7 5,1 6 4 22 12 NW 1034,4 8 0,0
26.05.2018 06:00:00 5,0 4,4 10 6 22 12 WNW 1034,5 5 0,0
26.05.2018 05:00:00 4,3 3,7 13 7 21 12 NW 1034,3 0,5 0,0
26.05.2018 04:00:00 3,5 2,0 5 3 13 7 NW 1033,9 36 0,0
26.05.2018 03:00:00 4,7 2,1 9 5 17 9 NNW 1033,5 50 0,0
26.05.2018 02:00:00 5,6 2,8 9 5 17 9 W 1033,3 50 0,0
26.05.2018 01:00:00 3,3 1,0 4 2 16 8 WNW 1034,0 50 0,0
26.05.2018 00:00:00 5,7 2,2 3 2 18 10 E 1033,5 50 0,0
25.05.2018 23:00:00 8,7 2,9 10 5 19 10 W 1032,5 50 0,0
25.05.2018 22:00:00 11,1 3,6 8 4 26 14 W 1031,4 50 0,0
25.05.2018 21:00:00 14,1 2,6 11 6 26 14 WNW 1030,1 49 0,0
25.05.2018 20:00:00 15,4 2,9 11 6 29 16 NNW 1029,5 47 0,0
25.05.2018 19:00:00 16,8 3,1 13 7 32 17 NW 1028,9 47 0,0
25.05.2018 18:00:00 17,7 0,4 15 8 32 17 NNW 1028,2 50 0,0
25.05.2018 17:00:00 18,7 -0,2 18 10 29 16 NW 1027,6 48 0,0
25.05.2018 16:00:00 19,4 2,3 13 7 24 13 NNW 1027,1 35 0,0
25.05.2018 15:00:00 19,1 1,6 14 8 25 14 WNW 1027,0 40 0,0
25.05.2018 14:00:00 18,8 3,4 12 7 25 14 NW 1027,0 50 0,0
25.05.2018 13:00:00 17,9 3,0 13 7 27 15 NNW 1027,1 34 0,0
25.05.2018 12:00:00 17,3 4,6 13 7 31 17 NNW 1027,0 45 0,0
25.05.2018 11:00:00 16,2 6,9 14 8 31 17 NW 1027,0 43 0,0
25.05.2018 10:00:00 15,5 8,0 13 7 21 11 NNW 1026,9 42 0,0
25.05.2018 09:00:00 14,6 7,2 7 4 13 7 NNW 1026,7 50 0,0
25.05.2018 08:00:00 12,2 7,5 5 3 9 5 N 1027,4 42 0,0
25.05.2018 07:00:00 8,2 6,2 0 0 5 3 N 1028,4 48 0,0
25.05.2018 06:00:00 5,2 4,6 2 1 4 2 ESE 1029,3 34 0,0
25.05.2018 05:00:00 2,1 1,5 0 0 4 2 N 1030,1 24 0,0
25.05.2018 04:00:00 1,7 0,8 0 0 4 2 N 1030,1 21 0,0
25.05.2018 03:00:00 3,2 2,0 0 0 8 4 N 1029,8 34 0,0
25.05.2018 02:00:00 4,7 3,2 4 2 8 5 WSW 1029,4 40 0,0
25.05.2018 01:00:00 5,8 3,6 0 0 12 6 N 1028,9 43 0,0
25.05.2018 00:00:00 9,4 6,5 6 3 12 6 WNW 1027,7 47 0,0
24.05.2018 23:00:00 10,5 6,1 7 4 9 5 WNW 1027,2 50 0,0
24.05.2018 22:00:00 13,8 4,4 3 2 12 7 W 1026,0 50 0,0
24.05.2018 21:00:00 18,0 3,1 4 2 16 9 W 1024,7 50 0,0
24.05.2018 20:00:00 19,4 -1,1 7 4 19 11 NW 1024,2 50 0,0
24.05.2018 19:00:00 20,2 -1,6 10 5 26 14 NW 1023,8 50 0,0
24.05.2018 18:00:00 21,8 -1,5 11 6 26 14 NW 1023,5 49 0,0
24.05.2018 17:00:00 22,5 0,3 11 6 25 13 NW 1023,3 50 0,0
24.05.2018 16:00:00 22,1 0,6 12 6 23 12 NW 1023,4 42 0,0
24.05.2018 15:00:00 22,6 1,0 12 6 23 12 WNW 1023,3 45 0,0
24.05.2018 14:00:00 21,6 1,8 10 5 24 13 N 1023,8 48 0,0
24.05.2018 13:00:00 21,7 1,4 12 7 24 13 W 1024,1 40 0,0
24.05.2018 12:00:00 20,9 -1,0 12 7 22 12 W 1024,6 41 0,0
24.05.2018 11:00:00 20,2 3,0 8 4 21 12 SSW 1024,9 45 0,0
24.05.2018 10:00:00 17,6 3,8 11 6 30 16 SSW 1025,6 50 0,0
24.05.2018 09:00:00 16,2 3,6 14 7 30 16 SSW 1026,0 50 0,0
24.05.2018 08:00:00 13,8 3,3 12 7 27 14 SSW 1026,7 50 0,0
24.05.2018 07:00:00 4,5 1,2 0 0 4 2 N 1029,7 50 0,0
24.05.2018 06:00:00 2,2 -0,2 0 0 6 4 N 1030,7 50 0,0
24.05.2018 05:00:00 -0,2 -1,9 2 1 6 4 WNW 1031,2 50 0,0
24.05.2018 04:00:00 -0,3 -2,2 0 0 7 4 N 1031,4 50 0,0
24.05.2018 03:00:00 0,4 -2,0 0 0 7 4 N 1031,3 50 0,0
24.05.2018 02:00:00 0,6 -2,1 2 1 5 3 E 1031,2 50 0,0
24.05.2018 01:00:00 - - - - 5 3 - - - -
24.05.2018 00:00:00 2,8 -1,4 3 1 5 3 W 1030,9 50 0,0
23.05.2018 23:00:00 5,4 -1,3 0 0 10 6 N 1030,0 50 0,0
23.05.2018 22:00:00 9,7 -1,1 3 2 15 8 W 1028,7 50 0,0
23.05.2018 21:00:00 14,0 -2,4 6 3 15 8 WNW 1026,9 50 0,0
23.05.2018 20:00:00 15,6 -1,5 8 5 19 10 NW 1026,1 50 0,0
23.05.2018 19:00:00 15,9 -1,7 7 4 19 10 NW 1025,8 50 0,0
23.05.2018 18:00:00 17,0 -2,1 7 4 18 10 NW 1025,2 50 0,0
23.05.2018 17:00:00 16,6 -2,5 7 4 19 10 NW 1025,4 50 0,0
23.05.2018 16:00:00 16,7 -1,9 7 4 16 9 WNW 1025,3 50 0,0
23.05.2018 15:00:00 15,8 -1,7 7 4 14 8 S 1025,3 45 0,0
23.05.2018 14:00:00 15,2 -3,7 5 3 11 6 ESE 1025,6 49 0,0
23.05.2018 13:00:00 14,6 -5,2 5 3 10 5 NE 1025,8 50 0,0
23.05.2018 12:00:00 12,9 -7,2 3 1 13 7 SW 1026,3 50 0,0
23.05.2018 11:00:00 10,7 -5,8 5 3 13 7 E 1026,7 50 0,0
23.05.2018 10:00:00 10,1 -1,3 7 4 13 7 ESE 1026,8 49 0,0
23.05.2018 09:00:00 8,5 -0,3 5 3 11 6 E 1027,1 50 0,0
23.05.2018 08:00:00 5,9 1,0 5 3 9 5 ESE 1027,6 50 0,0
23.05.2018 07:00:00 3,2 1,7 2 1 5 3 E 1028,3 50 0,0
23.05.2018 06:00:00 1,0 0,4 2 1 4 2 NW 1028,7 50 0,0
23.05.2018 05:00:00 -1,1 -1,7 0 0 4 2 N 1028,8 50 0,0
23.05.2018 04:00:00 -1,3 -2,0 3 1 5 3 SSE 1028,8 49 0,0
23.05.2018 03:00:00 0,6 -0,4 3 2 9 5 W 1028,2 49 0,0
23.05.2018 02:00:00 2,7 1,2 3 2 12 6 NNW 1027,6 50 0,0
23.05.2018 01:00:00 3,9 1,9 4 2 14 8 NW 1027,1 50 0,0
23.05.2018 00:00:00 5,2 3,1 8 4 16 9 NW 1026,9 50 0,0
22.05.2018 23:00:00 5,6 3,8 10 5 17 9 NW 1026,5 41 0,0
22.05.2018 22:00:00 5,9 4,2 8 4 19 10 NW 1026,2 29 0,0
22.05.2018 21:00:00 6,1 4,6 12 6 19 10 WNW 1025,9 22 0,0
22.05.2018 20:00:00 6,7 4,9 9 5 19 11 WNW 1025,2 20 0,0
22.05.2018 19:00:00 8,0 5,3 9 5 23 13 WNW 1024,4 18 0,0
22.05.2018 18:00:00 8,9 5,5 11 6 24 13 NW 1024,3 24 0,0
22.05.2018 17:00:00 8,8 5,7 13 7 32 18 NW 1024,5 22 0,0
22.05.2018 16:00:00 9,3 6,2 16 9 34 18 NW 1024,2 20 0,0
22.05.2018 15:00:00 11,5 6,6 16 8 35 19 NW 1023,2 31 0,0
22.05.2018 14:00:00 13,4 6,7 18 10 35 19 NW 1022,0 41 0,0
22.05.2018 13:00:00 14,0 6,8 16 8 29 16 NW 1021,4 37 0,0
22.05.2018 12:00:00 15,0 5,2 15 8 29 16 NW 1020,7 39 0,0
22.05.2018 11:00:00 14,4 6,7 14 8 33 18 NNW 1020,9 41 0,0
22.05.2018 10:00:00 13,3 7,5 16 9 33 18 NW 1021,0 39 0,0
22.05.2018 09:00:00 12,6 7,1 16 8 26 14 NW 1020,7 44 0,0
22.05.2018 08:00:00 12,4 7,1 0 0 5 3 N 1020,3 31 0,0
22.05.2018 07:00:00 8,3 6,9 0 0 8 4 N 1021,7 29 0,0

tt = Température de l'air
td = dewpoint
ff = Vitesse du vent
fx = gusts
dd = Direction du vent
ppp = reduced air pressure
vv = visibility
rr = Quantités de précipitations

stations d'obs. à proximité